SCP
0 0 0 0 0 0 0 0 0 0 0 0 0 0 0 0 0 0 0 0 0 0 0 0 0 0 0 0 0 0 0 0 0 0 0 0 0 0 0 0 0 0 0 0
0 0 0 0 0 0 0 0 0 0 0 0 0 0 0 0 0 0 0 0 0 0 0 0 0 0 0 0 0 0 0 0 0 0 0 0 0 0 0 0 0 0 0 0
0 0 0 0 0 0 0 0 0 0 0 0 0 0 0 0 0 0 0 0 0 0 0 0 0 0 0 0 0 0 0 0 0 0 0 0 0 0 0 0 0 0 0 0
0 0 0 0 0 0 0 0 0 0 0 0 0 0 0 0 0 0 0 0 0 0 0 0 0 0 0 0 0 0 0 0 0 0 0 -0 0 0 0 0 0 0 0 0
0 0 0 0 0 0 0 0 0 0 0 0 0 0 0 0 0 0 0 0 0 0 0 0 0 0 0 -0 -0 -0 0 0 0 0 0 -0 -0 -0 -0 -0 0 0 0 0
0 0 0 0 0 0 0 0 0 0 0 0 0 0 0 0 0 0 0 0 0 0 0 0 0 0 0 0 0 0 0 0 0 0 0 0 0 -0 0 -0 0 0 0 0
0 0 0 0 0 0 0 0 0 0 0 0 0 0 0 0 0 0 0 0 0 0 0 0 0 0 0 -0 -0 -0 -0 0 0 0 0 0 0 0 -0 0 0 0 0 0
0 0 0 0 0 0 0 0 0 0 0 0 0 0 0 0 0 0 0 0 0 0 0 0 0 0 -0 -0 -0 -0 0 0 0 0 0 0 0 -0 -0 -0 0 0 0 0
0 0 0 0 0 0 0 0 0 0 0 0 0 0 0 0 0 0 0 0 0 0 0 0 0 0 0 -0 -0 -0 -0 0 0 0 0 0 0 0 0 0 0 0 0 0
0 0 0 0 0 0 0 0 0 0 0 0 0 0 0 0 0 0 0 0 0 0 0 0 0 0 0 -0 -0 -0 0 0 -0 -0 -0 0 0 -0 -0 0 0 0 -0 0
0 0 0 0 0 0 0 0 0 0 0 0 0 0 0 0 0 0 0 0 0 0 0 0 0 0 0 -0 -0 -0 0 -0 -0 -0 -0 -0 0 0 0 -0 0 0 -0 0
0 0 0 0 0 0 0 0 0 0 0 0 0 0 0 0 0 0 0 0 0 0 0 0 0 0 0 0 0 -0 -0 -0 -0 -0 -0 0 0 0 0 0 0 0 0 0
0 0 0 0 0 0 0 0 0 0 0 0 0 0 0 0 0 0 0 0 0 0 0 0 0 0 0 0 0 0 -0 -0 -0 -0 -0 0 0 0 0 0 0 0 0 0
0 0 0 0 0 0 0 0 0 0 0 0 0 0 0 0 0 0 0 0 0 0 0 0 0 0 0 0 -0 -0 -0 -0 -0 -0 -0 -0 0 0 0 0 0 0 0 0
0 0 0 0 0 0 0 0 0 0 0 0 0 0 0 0 0 0 0 0 0 0 0 0 0 0 -0 -0 -0 -0 -0 -0 -0 -0 -0 -0 0 0 0 0 0 0 0 0
0 0 0 0 0 0 0 0 0 0 0 0 0 0 0 0 0 0 0 0 0 0 0 0 0 0 0 -0 -0 -0 -0 -0 -0 -0 -0 -0 0 0 0 0 0 0 0 0
0 0 0 0 0 0 0 0 0 0 0 0 0 0 0 0 0 0 0 0 0 0 0 0 0 0 0 0 -0 -0 -0 -0 -0 -0 -0 -0 0 0 0 0 0 0 0 0
0 0 0 0 0 0 0 0 0 0 0 0 0 0 0 0 0 0 0 0 0 0 0 0 0 0 0 -0 -0 -0 -0 -0 -0 -0 -0 -0 -0 0 0 0 0 0 0 0
0 0 0 0 0 0 0 0 0 0 0 0 0 0 0 0 0 0 0 0 0 0 0 0 0 0 0 -0 -0 -0 -0 -0 -0 -0 -0 0 -0 0 0 0 0 0 0 0
0 0 0 0 0 0 0 0 0 0 0 0 0 0 0 0 0 0 0 0 0 0 0 0 0 -0 -0 -0 -0 -0 -0 -0 -0 -0 -0 0 -0 0 0 0 0 0 0 0
0 0 0 0 0 0 0 0 0 0 0 -0 0 0 0 0 0 0 0 0 0 0 0 0 -0 -0 -0 -0 -0 -0 -0 -0 -0 -0 -0 0 -0 0 0 -0 0 0 0 0
0 0 0 0 0 0 0 0 0 0 0 0 -0 0 0 0 0 0 0 0 0 0 0 -0 -0 -0 -0 -0 -0 -0 -0 -0 -0 -0 -0 0 0 0 0 0 0 0 0 0
0 0 0 0 0 -0 -0 -0 0 0 0 0 0 -0 -0 0 0 0 0 0 0 -0 -0 -0 -0 -0 -0 -0 -0 -0 -0 -0 -0 -0 0 0 0 0 0 0 0 0 0 0
0 0 0 0 0 0 0 0 0 0 0 0 0 -0 -0 0 0 0 0 0 -0 -0 0 0 -0 -0 0 0 0 -0 -0 -0 -0 0 0 0 0 0 0 0 -0 0 0 0
0 0 0 0 0 0 0 0 0 0 -0 -0 -0 0 -0 0 0 0 0 0 -0 0 0 -0 -0 -0 -0 -0 -0 -0 0 0 0 0 0 0 0 0 0 0 0 0 0 0
0 0 0 0 0 0 -0 0 0 0 -0 -0 -0 0 -0 0 0 0 0 0 0 -0 -0 -0 -0 -0 -0 -0 -0 -0 0 0 0 0 0 0 0 0 0 0 0 0 0 0
Wind_Speed_500mb
12 14 7 11 4 8 8 7 12 10 11 16 8 22 20 35 33 34 35 36 34 31 26 21 22 24 25 28 32 35 34 30 28 26 30 30 27 21 22 36 51 62 61 59
13 8 5 10 7 5 6 8 12 15 13 13 17 30 13 25 16 28 31 33 32 28 24 29 33 33 34 37 38 40 44 45 42 39 36 38 43 41 30 22 31 45 55 62
2 2 10 7 7 12 6 6 9 13 12 10 14 14 8 10 25 31 31 28 31 34 34 34 35 37 37 40 42 44 44 44 46 49 49 42 42 44 47 40 30 32 45 54
3 7 10 10 7 7 5 9 9 18 18 9 8 12 3 4 7 9 23 27 26 29 31 34 39 41 44 47 50 50 50 49 50 50 50 50 49 52 53 57 50 44 39 44
7 14 13 12 3 7 8 15 13 13 12 4 11 2 11 5 4 5 14 18 21 23 28 32 37 44 50 53 53 53 48 48 48 47 48 45 53 50 58 54 54 51 46 44
5 11 10 11 4 7 15 11 12 9 2 3 11 4 10 4 4 4 3 7 13 18 23 26 33 47 54 54 50 50 49 46 47 41 43 45 46 51 58 58 62 52 49 49
13 3 2 11 8 12 15 17 11 11 7 8 4 11 14 4 3 7 9 16 18 19 20 24 35 46 55 56 51 46 44 41 43 42 39 38 38 43 49 52 55 51 58 58
7 10 7 11 5 6 4 7 7 11 6 22 25 13 10 6 8 14 22 26 27 29 31 34 36 42 47 44 40 40 44 45 45 43 42 42 45 46 48 52 46 51 55 64
11 9 6 8 8 5 8 5 4 9 10 6 8 12 6 4 16 27 28 29 40 28 30 34 33 38 42 42 40 39 42 46 48 49 51 53 54 50 53 51 47 47 51 59
4 13 5 9 3 6 10 6 5 2 7 10 10 18 19 8 15 19 28 49 41 32 45 34 32 34 37 39 38 33 31 50 55 59 60 53 55 52 55 51 50 45 50 52
5 5 10 4 4 9 7 6 5 2 1 6 11 12 9 19 30 25 35 50 40 44 53 43 33 31 35 39 37 37 40 49 58 65 71 70 55 53 53 50 48 44 48 46
5 3 9 17 15 8 9 7 8 5 13 8 8 34 30 22 21 44 56 63 56 58 61 46 38 34 39 41 40 43 44 51 55 64 73 73 61 50 49 47 47 39 42 40
8 5 11 16 9 8 7 2 5 5 2 31 18 22 11 49 51 58 47 58 61 60 57 38 30 38 44 46 45 46 46 52 59 66 75 78 77 52 48 46 48 37 40 33
17 8 16 21 15 2 15 16 13 12 14 25 30 42 42 38 32 54 61 55 41 38 21 24 33 35 41 47 48 50 51 52 59 67 76 81 82 61 49 42 47 36 35 29
5 8 8 13 16 12 29 39 39 27 37 17 46 33 42 37 30 46 39 30 30 25 28 33 34 40 43 45 50 55 57 56 59 68 78 83 83 71 50 42 44 31 30 27
3 11 6 41 29 25 35 38 39 38 33 26 36 40 35 52 36 22 24 21 24 28 34 39 45 51 54 54 54 57 56 54 59 70 81 83 83 75 53 43 50 38 33 23
8 7 2 12 5 8 14 19 11 8 10 11 12 14 10 13 22 22 22 24 30 34 41 47 51 45 45 47 47 51 47 53 64 73 79 84 84 74 53 44 47 46 33 25
8 2 6 8 5 4 13 11 13 14 21 12 12 13 17 23 32 28 27 26 33 40 48 52 45 51 52 52 51 49 51 58 65 69 83 82 77 66 52 45 48 40 30 18
16 6 7 6 4 13 14 14 15 12 14 15 18 20 36 35 25 33 29 27 36 41 43 46 48 54 57 53 53 55 57 57 60 78 87 80 70 65 51 37 55 36 30 22
9 2 3 10 13 10 2 20 59 14 7 42 45 32 36 39 10 10 30 37 43 43 45 52 53 55 56 53 56 56 62 59 78 85 82 71 64 61 41 31 51 38 22 55
8 9 7 10 8 13 4 49 47 1 11 70 58 57 49 17 30 40 43 43 43 47 54 59 56 57 58 59 55 55 78 84 80 74 67 61 56 44 27 38 26 13 67 82
5 4 7 4 7 12 27 50 7 21 59 61 71 72 55 55 40 38 41 43 47 54 64 62 62 63 59 53 78 93 89 84 69 62 61 56 47 32 22 41 14 38 88 92
5 13 7 9 10 63 64 54 44 64 59 68 63 79 46 38 32 36 41 45 53 62 67 66 66 64 68 101 91 83 69 62 58 58 55 48 35 18 18 3 30 76 87 102
10 20 14 22 28 44 58 74 68 44 53 67 71 55 33 29 31 37 41 51 60 68 70 69 69 72 90 90 82 65 61 56 55 53 46 37 14 6 11 22 38 73 94 103
26 7 11 15 42 47 51 40 50 63 65 65 66 44 32 31 35 39 48 54 63 67 70 70 76 79 97 93 78 61 49 40 47 44 37 19 9 4 15 32 51 76 98 98
19 18 9 21 58 41 63 70 68 69 64 64 64 40 33 32 40 45 47 55 62 68 69 77 74 105 99 86 72 43 28 25 36 30 21 15 12 17 31 42 45 58 78 80
Wind_Direction_500mb
17 61 20 299 277 259 263 255 274 259 289 328 263 289 290 302 47 64 78 78 74 64 55 44 29 14 4 357 354 352 347 336 318 312 317 312 304 287 287 274 269 265 262 258
12 104 328 293 26 319 308 300 304 298 339 344 298 303 18 41 45 67 68 59 49 41 27 19 13 7 1 357 352 350 350 344 338 330 329 329 329 320 318 306 284 273 268 265
181 42 12 29 33 12 28 11 323 280 300 252 326 295 122 36 64 64 58 48 40 31 21 14 10 5 357 350 344 335 332 337 339 330 319 314 316 323 321 311 305 293 274 268
256 6 14 23 29 13 303 339 281 313 349 306 87 280 111 83 75 41 30 36 31 15 13 8 2 360 358 351 343 336 326 316 312 319 326 313 318 323 313 315 310 311 297 280
287 10 7 43 9 353 283 324 278 260 230 360 360 330 279 240 331 360 16 19 15 15 7 4 358 350 351 348 343 335 320 319 312 298 301 314 308 316 312 313 312 311 307 304
15 31 35 337 331 9 310 318 288 13 78 279 165 130 275 242 261 240 279 344 351 344 345 348 350 352 349 344 341 339 340 339 335 325 311 303 311 311 316 311 314 310 308 312
339 6 349 27 16 350 24 28 336 336 353 277 210 347 253 231 288 201 243 295 315 320 331 346 348 351 345 344 346 346 347 349 344 341 329 327 322 317 311 306 312 313 307 312
9 325 22 327 124 294 360 122 170 275 267 292 314 254 275 215 244 270 281 299 314 324 328 331 340 345 343 344 349 352 349 344 338 331 325 325 321 320 316 315 309 305 304 309
349 268 307 40 342 34 319 60 156 260 266 275 239 299 296 312 298 284 290 308 310 317 325 317 323 338 342 337 336 345 350 349 345 334 324 312 312 316 309 309 307 303 306 310
336 295 329 317 13 85 126 220 334 346 309 297 302 304 278 307 287 295 295 299 295 308 324 304 312 326 332 335 331 336 343 349 354 354 348 324 318 313 304 307 305 301 308 316
28 171 285 349 259 273 353 316 66 98 120 243 302 272 227 310 304 305 297 295 283 307 318 307 293 309 319 329 331 332 330 338 345 346 350 347 330 318 312 307 309 299 300 313
295 211 271 242 275 242 183 167 109 128 285 228 245 275 275 274 298 307 303 298 288 299 307 303 295 299 308 317 326 328 331 335 341 343 347 348 339 323 318 310 314 308 305 299
335 316 320 327 8 9 56 60 120 125 133 272 268 272 298 313 313 309 299 299 301 304 307 307 307 304 302 308 317 327 326 330 335 340 342 346 348 332 323 322 321 313 319 293
300 210 207 252 253 303 291 278 258 209 266 282 260 279 292 291 302 305 313 320 316 328 344 334 332 326 313 302 309 318 319 321 329 334 339 343 346 337 327 324 322 316 319 282
54 274 280 263 272 283 284 283 280 250 251 249 277 281 279 286 293 297 311 338 345 350 342 340 334 323 322 315 306 309 311 314 324 330 335 338 340 340 330 323 324 317 310 269
310 260 299 284 276 271 275 278 270 272 267 250 256 270 276 283 292 295 330 343 342 341 333 329 325 322 315 310 307 306 306 312 322 328 331 334 336 338 329 323 326 304 311 278
243 246 158 265 302 288 275 257 253 265 221 215 245 262 306 305 323 306 311 322 324 327 323 324 324 323 328 330 314 308 311 315 321 326 329 331 333 334 326 327 322 317 297 276
239 171 223 271 328 277 244 288 248 262 281 271 276 276 284 292 309 295 295 309 318 321 323 325 322 322 323 323 318 314 313 316 319 325 329 330 331 329 323 320 320 309 283 253
202 271 288 294 240 283 300 10 349 331 312 24 343 318 317 317 311 294 317 302 312 320 322 322 321 319 319 317 314 312 312 316 318 324 325 326 328 328 323 316 319 296 263 231
71 349 145 314 300 292 78 335 341 296 258 352 342 317 321 319 318 275 325 319 320 321 325 326 325 320 318 318 315 308 311 314 316 317 319 318 323 326 318 306 310 297 216 173
342 330 231 271 268 272 48 352 326 16 321 326 318 309 303 284 268 304 315 317 320 322 324 326 323 319 320 320 319 317 315 314 316 313 314 313 318 321 306 278 304 157 170 161
211 193 261 307 250 269 342 345 357 310 312 307 312 313 296 304 297 307 313 320 324 324 325 326 323 322 325 325 320 317 315 315 315 311 312 312 319 312 294 297 150 162 148 147
290 195 206 208 244 295 302 292 290 302 296 305 313 324 309 303 302 312 317 325 326 325 326 327 325 324 325 328 323 312 307 302 300 298 301 304 313 305 289 211 150 146 153 147
264 246 248 280 272 273 294 298 301 312 308 314 323 321 322 307 314 315 321 324 326 328 329 329 327 324 323 318 316 308 302 298 294 288 292 296 287 287 271 181 171 157 142 141
262 231 244 261 278 282 287 294 301 306 306 318 327 320 313 314 315 317 321 323 328 330 331 332 331 328 320 323 323 318 304 291 276 274 276 277 233 78 135 176 162 149 150 155
230 247 242 269 281 281 279 290 298 304 305 318 325 312 316 313 316 315 319 326 333 334 334 337 339 333 331 335 335 327 310 263 253 251 248 189 129 134 152 160 146 149 151 150
Wind_Speed_850mb
12 14 7 11 4 8 8 7 12 10 11 16 8 22 20 35 33 34 35 36 34 31 26 21 22 24 25 28 32 35 34 30 28 26 30 30 27 21 22 36 51 62 61 59
13 8 5 10 7 5 6 8 12 15 13 13 17 30 13 25 16 28 31 33 32 28 24 29 33 33 34 37 38 40 44 45 42 39 36 38 43 41 30 22 31 45 55 62
2 2 10 7 7 12 6 6 9 13 12 10 14 14 8 10 25 31 31 28 31 34 34 34 35 37 37 40 42 44 44 44 46 49 49 42 42 44 47 40 30 32 45 54
3 7 10 10 7 7 5 9 9 18 18 9 8 12 3 4 7 9 23 27 26 29 31 34 39 41 44 47 50 50 50 49 50 50 50 50 49 52 53 57 50 44 39 44
7 14 13 12 3 7 8 15 13 13 12 4 11 2 11 5 4 5 14 18 21 23 28 32 37 44 50 53 53 53 48 48 48 47 48 45 53 50 58 54 54 51 46 44
5 11 10 11 4 7 15 11 12 9 2 3 11 4 10 4 4 4 3 7 13 18 23 26 33 47 54 54 50 50 49 46 47 41 43 45 46 51 58 58 62 52 49 49
13 3 2 11 8 12 15 17 11 11 7 8 4 11 14 4 3 7 9 16 18 19 20 24 35 46 55 56 51 46 44 41 43 42 39 38 38 43 49 52 55 51 58 58
7 10 7 11 5 6 4 7 7 11 6 22 25 13 10 6 8 14 22 26 27 29 31 34 36 42 47 44 40 40 44 45 45 43 42 42 45 46 48 52 46 51 55 64
11 9 6 8 8 5 8 5 4 9 10 6 8 12 6 4 16 27 28 29 40 28 30 34 33 38 42 42 40 39 42 46 48 49 51 53 54 50 53 51 47 47 51 59
4 13 5 9 3 6 10 6 5 2 7 10 10 18 19 8 15 19 28 49 41 32 45 34 32 34 37 39 38 33 31 50 55 59 60 53 55 52 55 51 50 45 50 52
5 5 10 4 4 9 7 6 5 2 1 6 11 12 9 19 30 25 35 50 40 44 53 43 33 31 35 39 37 37 40 49 58 65 71 70 55 53 53 50 48 44 48 46
5 3 9 17 15 8 9 7 8 5 13 8 8 34 30 22 21 44 56 63 56 58 61 46 38 34 39 41 40 43 44 51 55 64 73 73 61 50 49 47 47 39 42 40
8 5 11 16 9 8 7 2 5 5 2 31 18 22 11 49 51 58 47 58 61 60 57 38 30 38 44 46 45 46 46 52 59 66 75 78 77 52 48 46 48 37 40 33
17 8 16 21 15 2 15 16 13 12 14 25 30 42 42 38 32 54 61 55 41 38 21 24 33 35 41 47 48 50 51 52 59 67 76 81 82 61 49 42 47 36 35 29
5 8 8 13 16 12 29 39 39 27 37 17 46 33 42 37 30 46 39 30 30 25 28 33 34 40 43 45 50 55 57 56 59 68 78 83 83 71 50 42 44 31 30 27
3 11 6 41 29 25 35 38 39 38 33 26 36 40 35 52 36 22 24 21 24 28 34 39 45 51 54 54 54 57 56 54 59 70 81 83 83 75 53 43 50 38 33 23
8 7 2 12 5 8 14 19 11 8 10 11 12 14 10 13 22 22 22 24 30 34 41 47 51 45 45 47 47 51 47 53 64 73 79 84 84 74 53 44 47 46 33 25
8 2 6 8 5 4 13 11 13 14 21 12 12 13 17 23 32 28 27 26 33 40 48 52 45 51 52 52 51 49 51 58 65 69 83 82 77 66 52 45 48 40 30 18
16 6 7 6 4 13 14 14 15 12 14 15 18 20 36 35 25 33 29 27 36 41 43 46 48 54 57 53 53 55 57 57 60 78 87 80 70 65 51 37 55 36 30 22
9 2 3 10 13 10 2 20 59 14 7 42 45 32 36 39 10 10 30 37 43 43 45 52 53 55 56 53 56 56 62 59 78 85 82 71 64 61 41 31 51 38 22 55
8 9 7 10 8 13 4 49 47 1 11 70 58 57 49 17 30 40 43 43 43 47 54 59 56 57 58 59 55 55 78 84 80 74 67 61 56 44 27 38 26 13 67 82
5 4 7 4 7 12 27 50 7 21 59 61 71 72 55 55 40 38 41 43 47 54 64 62 62 63 59 53 78 93 89 84 69 62 61 56 47 32 22 41 14 38 88 92
5 13 7 9 10 63 64 54 44 64 59 68 63 79 46 38 32 36 41 45 53 62 67 66 66 64 68 101 91 83 69 62 58 58 55 48 35 18 18 3 30 76 87 102
10 20 14 22 28 44 58 74 68 44 53 67 71 55 33 29 31 37 41 51 60 68 70 69 69 72 90 90 82 65 61 56 55 53 46 37 14 6 11 22 38 73 94 103
26 7 11 15 42 47 51 40 50 63 65 65 66 44 32 31 35 39 48 54 63 67 70 70 76 79 97 93 78 61 49 40 47 44 37 19 9 4 15 32 51 76 98 98
19 18 9 21 58 41 63 70 68 69 64 64 64 40 33 32 40 45 47 55 62 68 69 77 74 105 99 86 72 43 28 25 36 30 21 15 12 17 31 42 45 58 78 80
Wind_Direction_850mb
17 61 20 299 277 259 263 255 274 259 289 328 263 289 290 302 47 64 78 78 74 64 55 44 29 14 4 357 354 352 347 336 318 312 317 312 304 287 287 274 269 265 262 258
12 104 328 293 26 319 308 300 304 298 339 344 298 303 18 41 45 67 68 59 49 41 27 19 13 7 1 357 352 350 350 344 338 330 329 329 329 320 318 306 284 273 268 265
181 42 12 29 33 12 28 11 323 280 300 252 326 295 122 36 64 64 58 48 40 31 21 14 10 5 357 350 344 335 332 337 339 330 319 314 316 323 321 311 305 293 274 268
256 6 14 23 29 13 303 339 281 313 349 306 87 280 111 83 75 41 30 36 31 15 13 8 2 360 358 351 343 336 326 316 312 319 326 313 318 323 313 315 310 311 297 280
287 10 7 43 9 353 283 324 278 260 230 360 360 330 279 240 331 360 16 19 15 15 7 4 358 350 351 348 343 335 320 319 312 298 301 314 308 316 312 313 312 311 307 304
15 31 35 337 331 9 310 318 288 13 78 279 165 130 275 242 261 240 279 344 351 344 345 348 350 352 349 344 341 339 340 339 335 325 311 303 311 311 316 311 314 310 308 312
339 6 349 27 16 350 24 28 336 336 353 277 210 347 253 231 288 201 243 295 315 320 331 346 348 351 345 344 346 346 347 349 344 341 329 327 322 317 311 306 312 313 307 312
9 325 22 327 124 294 360 122 170 275 267 292 314 254 275 215 244 270 281 299 314 324 328 331 340 345 343 344 349 352 349 344 338 331 325 325 321 320 316 315 309 305 304 309
349 268 307 40 342 34 319 60 156 260 266 275 239 299 296 312 298 284 290 308 310 317 325 317 323 338 342 337 336 345 350 349 345 334 324 312 312 316 309 309 307 303 306 310
336 295 329 317 13 85 126 220 334 346 309 297 302 304 278 307 287 295 295 299 295 308 324 304 312 326 332 335 331 336 343 349 354 354 348 324 318 313 304 307 305 301 308 316
28 171 285 349 259 273 353 316 66 98 120 243 302 272 227 310 304 305 297 295 283 307 318 307 293 309 319 329 331 332 330 338 345 346 350 347 330 318 312 307 309 299 300 313
295 211 271 242 275 242 183 167 109 128 285 228 245 275 275 274 298 307 303 298 288 299 307 303 295 299 308 317 326 328 331 335 341 343 347 348 339 323 318 310 314 308 305 299
335 316 320 327 8 9 56 60 120 125 133 272 268 272 298 313 313 309 299 299 301 304 307 307 307 304 302 308 317 327 326 330 335 340 342 346 348 332 323 322 321 313 319 293
300 210 207 252 253 303 291 278 258 209 266 282 260 279 292 291 302 305 313 320 316 328 344 334 332 326 313 302 309 318 319 321 329 334 339 343 346 337 327 324 322 316 319 282
54 274 280 263 272 283 284 283 280 250 251 249 277 281 279 286 293 297 311 338 345 350 342 340 334 323 322 315 306 309 311 314 324 330 335 338 340 340 330 323 324 317 310 269
310 260 299 284 276 271 275 278 270 272 267 250 256 270 276 283 292 295 330 343 342 341 333 329 325 322 315 310 307 306 306 312 322 328 331 334 336 338 329 323 326 304 311 278
243 246 158 265 302 288 275 257 253 265 221 215 245 262 306 305 323 306 311 322 324 327 323 324 324 323 328 330 314 308 311 315 321 326 329 331 333 334 326 327 322 317 297 276
239 171 223 271 328 277 244 288 248 262 281 271 276 276 284 292 309 295 295 309 318 321 323 325 322 322 323 323 318 314 313 316 319 325 329 330 331 329 323 320 320 309 283 253
202 271 288 294 240 283 300 10 349 331 312 24 343 318 317 317 311 294 317 302 312 320 322 322 321 319 319 317 314 312 312 316 318 324 325 326 328 328 323 316 319 296 263 231
71 349 145 314 300 292 78 335 341 296 258 352 342 317 321 319 318 275 325 319 320 321 325 326 325 320 318 318 315 308 311 314 316 317 319 318 323 326 318 306 310 297 216 173
342 330 231 271 268 272 48 352 326 16 321 326 318 309 303 284 268 304 315 317 320 322 324 326 323 319 320 320 319 317 315 314 316 313 314 313 318 321 306 278 304 157 170 161
211 193 261 307 250 269 342 345 357 310 312 307 312 313 296 304 297 307 313 320 324 324 325 326 323 322 325 325 320 317 315 315 315 311 312 312 319 312 294 297 150 162 148 147
290 195 206 208 244 295 302 292 290 302 296 305 313 324 309 303 302 312 317 325 326 325 326 327 325 324 325 328 323 312 307 302 300 298 301 304 313 305 289 211 150 146 153 147
264 246 248 280 272 273 294 298 301 312 308 314 323 321 322 307 314 315 321 324 326 328 329 329 327 324 323 318 316 308 302 298 294 288 292 296 287 287 271 181 171 157 142 141
262 231 244 261 278 282 287 294 301 306 306 318 327 320 313 314 315 317 321 323 328 330 331 332 331 328 320 323 323 318 304 291 276 274 276 277 233 78 135 176 162 149 150 155
230 247 242 269 281 281 279 290 298 304 305 318 325 312 316 313 316 315 319 326 333 334 334 337 339 333 331 335 335 327 310 263 253 251 248 189 129 134 152 160 146 149 151 150